Weather History for Redmond, OR

Change the Weather History Date:

Friday, April 4, 2014

  Actual Average Record
Temperature  
Mean Temperature 44 °F 43 °F  
Max Temperature 55 °F 57 °F 83 °F (1960)
Min Temperature 33 °F 28 °F 11 °F (2009)
Degree Days  
Heating Degree Days 21 22  
Month to date heating degree days 99 91  
Since 1 July heating degree days 5613 5542  
Cooling Degree Days 0 0  
Month to date cooling degree days 0 0  
Year to date cooling degree days 0 0  
Moisture  
Dew Point 29 °F    
Average Humidity 59    
Maximum Humidity 82    
Minimum Humidity 35    
Precipitation  
Precipitation 0.00 in 0.02 in 0.16 in (1993)
Month to date precipitation 0.29 0.08  
Year to date precipitation 2.80 2.36  
Sea Level Pressure  
Sea Level Pressure 29.93 in    
Wind  
Wind Speed 8 mph (WNW)    
Max Wind Speed 22 mph    
Max Gust Speed 28 mph    
Visibility 10 miles    
Events      
T = Trace of Precipitation, MM = Missing Value Source: NWS Daily Summary

Daily Weather History Graph

Daily Weather History Graph

Search for Another Location

Airport:

Trip Planner

Search our weather history database for the weather conditions in past years. The results will help you decide how hot, cold, wet, or windy it might be!

Date:

Astronomy

Apr. 04, 2014 Rise Set
Actual Time 6:40 AM PDT 7:35 PM PDT
Civil Twilight 6:10 AM PDT 8:05 PM PDT
Nautical Twilight 5:35 AM PDT 8:40 PM PDT
Astronomical Twilight 4:59 AM PDT 9:17 PM PDT
Moon 9:53 AM PDT (4/4) 12:06 AM PDT (4/4)
Length of Visible Light 13h 54m
Length of Day
12h 55m
Waxing Crescent, 26% of the Moon is Illuminated
Apr 4
Waxing Crescent
Apr 7
First Quarter
Apr 15
Full
Apr 22
Last Quarter
Apr 28
New

Hourly Weather History & Observations

Time (PDT) Temp. Windchill Dew Point Humidity Pressure Visibility Wind Dir Wind Speed Gust Speed Precip Events Conditions
12:56 AM 41.0 °F 37.1 °F 30.0 °F 65% 29.93 in 10.0 mi South 5.8 mph - N/A   Overcast
1:56 AM 42.1 °F 38.4 °F 28.9 °F 60% 29.92 in 10.0 mi WSW 5.8 mph - N/A   Overcast
2:56 AM 39.9 °F 35.1 °F 28.9 °F 65% 29.91 in 10.0 mi South 6.9 mph - N/A   Overcast
3:56 AM 39.9 °F 35.1 °F 28.9 °F 65% 29.91 in 10.0 mi SSW 6.9 mph - N/A   Mostly Cloudy
4:56 AM 39.0 °F 32.8 °F 28.0 °F 65% 29.91 in 10.0 mi South 9.2 mph - N/A   Scattered Clouds
5:56 AM 37.9 °F 32.7 °F 28.9 °F 70% 29.91 in 10.0 mi SSW 6.9 mph - N/A   Overcast
6:56 AM 36.0 °F 31.1 °F 28.0 °F 73% 29.93 in 10.0 mi North 5.8 mph - N/A   Mostly Cloudy
7:56 AM 37.0 °F 34.5 °F 28.9 °F 73% 29.94 in 10.0 mi ENE 3.5 mph - N/A   Partly Cloudy
8:56 AM 42.1 °F 38.4 °F 30.0 °F 62% 29.94 in 10.0 mi Variable 5.8 mph - N/A   Mostly Cloudy
9:56 AM 45.0 °F 43.5 °F 28.9 °F 53% 29.94 in 10.0 mi Variable 3.5 mph - N/A   Mostly Cloudy
10:56 AM 46.9 °F - 28.0 °F 48% 29.94 in 10.0 mi NW 4.6 mph - N/A   Scattered Clouds
11:56 AM 48.9 °F - 28.0 °F 44% 29.93 in 10.0 mi NNW 5.8 mph - N/A   Overcast
1:56 PM 51.1 °F - 26.1 °F 38% 29.88 in 10.0 mi NNW 5.8 mph - N/A   Mostly Cloudy
2:56 PM 52.0 °F - 25.0 °F 35% 29.87 in 10.0 mi NW 11.5 mph - N/A   Mostly Cloudy
3:56 PM 51.1 °F - 27.0 °F 39% 29.87 in 10.0 mi WNW 16.1 mph 23.0 mph N/A   Scattered Clouds
4:56 PM 48.9 °F - 27.0 °F 43% 29.89 in 10.0 mi NNW 17.3 mph 23.0 mph N/A   Mostly Cloudy
5:56 PM 48.9 °F - 28.9 °F 46% 29.90 in 10.0 mi WNW 18.4 mph 24.2 mph N/A   Partly Cloudy
6:56 PM 46.0 °F 39.6 °F 28.9 °F 51% 29.93 in 10.0 mi WNW 15.0 mph - N/A   Mostly Cloudy
7:56 PM 42.1 °F 35.7 °F 30.9 °F 65% 29.95 in 10.0 mi NW 11.5 mph - N/A   Mostly Cloudy
8:56 PM 41.0 °F 38.0 °F 32.0 °F 70% 29.96 in 10.0 mi NNW 4.6 mph - N/A   Mostly Cloudy
9:56 PM 37.0 °F - 30.0 °F 76% 29.98 in 10.0 mi Calm Calm - N/A   Clear
10:56 PM 35.1 °F - 30.0 °F 82% 29.98 in 10.0 mi Calm Calm - N/A   Mostly Cloudy
11:56 PM 33.1 °F 26.9 °F 28.9 °F 85% 29.99 in 10.0 mi South 6.9 mph - N/A   Partly Cloudy